User: anonymous   Login
Location: Frydek-Mistek
(49.6830°N, 18.3330°E)
Time: 09:23:33
(UTC+02:00)
Language:

Courier 1B Rocket - Orbit

View from above orbital plane
View from above orbital plane
View from above satellite
View from above satellite

Ground track
Ground track

The orbit data is extracted from the following two-line orbital elements,

1    59U 60013B   17112.91260804 +.00000104 +00000-0 +22405-4 0  9998
2    59 028.2504 013.2912 0189155 341.1472 018.2146 13.52948960790539
Epoch (UTC): 22 April 2017 21:54:09
Eccentricity: 0.0189155
inclination: 28.2504°
perigee height: 921 km
apogee height: 1202 km
right ascension of ascending node: 13.2912°
argument of perigee: 341.1472°
revolutions per day: 13.52948960
mean anomaly at epoch: 18.2146°
orbit number at epoch: 79053

The dashed part of the orbit path shows where the satellite is in the earth's shadow,  

DLR